Volver al catálogo

STARLINK-36613

ActivoComunicacionesSSO
NORAD 67578·PAYLOAD·🇺🇸 United States

Lanzado Jan 25, 2026 desde Vandenberg Space Force Base

Loading…

Próximos Pases (próximas 24 horas)

TLE

ActualizadoSource: CelesTrak SupGP

Época: Sep 14, 2026, 21:33 UTC

1 67578C 26016T   26257.89840278  .00009521  00000+0  29517-3 0  2576
2 67578  97.2849 316.5705 0000439  85.8332  43.8109 15.33474881    16

Sigue STARLINK-36613 en tiempo real con AllMySat

Download on the App Store